Location: Clarks Summit,Pa.
(41.5000°N, 75.6000°W)
Time: 06:12:25
(UTC-05:00)

Envisat - Pass Details

Date: 07 December 2021
Orbit: 764 x 766 km, 98.2° (Epoch: 28 January)

Event Time Altitude Azimuth Distance (km) Brightness Sun altitude
Rises 03:43:00 0° 32° (NNE) 3,240 6.6 -39.0°
Reaches altitude 10° 03:46:24 10° 56° (ENE) 2,308 6.0 -38.3°
Maximum altitude 03:49:12 15° 90° (E) 1,991 5.8 -37.8°
Drops below altitude 10° 03:51:59 10° 124° (ESE) 2,298 6.0 -37.3°
Sets 03:55:20 0° 147° (SSE) 3,217 6.6 -36.7°
